Location: Emory University Observatory
(33.7903°N, 84.3267°W)
Time: 18:39:00
(UTC-04:00)

Envisat - Pass Details

Date: 08 October 2017
Orbit: 764 x 766 km, 98.2° (Epoch: 23 October)

Event Time Altitude Azimuth Distance (km) Brightness Sun altitude
Exits shadow 22:21:38 19° 310° (NW) 1,762 5.4 -39.6°
Drops below altitude 10° 22:23:23 10° 324° (NW) 2,305 6.0 -39.9°
Sets 22:25:57 0° 335° (NNW) 3,235 6.8 -40.4°
